RH
24 20 22 20 19 20 18 18 19 22 23 25 25 27 32 26 24 22 27 21 23 26 27 24 24 21 21 20 24 24 20 20 43 57 65 77 77 87 100 100 100 100 100
30 34 23 20 23 24 24 28 27 25 30 33 38 35 34 34 32 37 32 33 29 27 24 26 28 31 26 25 24 22 21 26 21 18 24 58 70 69 77 96 100 100 100
26 23 25 25 28 32 34 42 46 48 53 62 63 61 60 60 56 64 63 53 47 44 40 37 32 35 36 36 35 31 25 22 22 26 22 17 28 50 76 66 90 100 100
23 20 23 25 28 38 43 48 55 60 69 68 91 100 98 80 73 71 66 61 60 58 48 39 44 42 46 47 44 39 32 28 26 23 26 28 22 19 31 66 74 82 100
22 26 30 34 34 41 49 50 61 68 58 53 65 64 70 85 86 87 72 79 72 60 64 60 50 53 55 53 50 43 38 32 31 27 24 24 27 25 20 26 49 87 100
29 36 39 40 43 46 43 50 77 76 62 68 72 73 70 80 70 66 71 78 55 51 51 52 54 53 49 46 41 41 40 36 33 32 27 25 26 30 27 23 23 31 67
34 44 63 66 59 74 78 90 100 58 63 58 67 70 80 89 82 67 65 52 47 54 56 52 48 51 50 47 45 43 42 37 32 28 26 24 23 26 32 26 24 32 59
40 61 79 79 80 100 100 98 64 58 58 43 50 56 76 76 95 82 86 76 63 59 61 58 61 63 55 48 49 46 43 40 33 28 27 26 26 24 33 29 32 39 63
66 78 84 95 99 100 91 79 73 63 47 51 52 64 75 77 56 73 80 70 67 76 79 78 77 68 61 57 60 54 51 42 32 29 30 27 27 26 32 35 36 53 92
87 87 84 84 82 76 71 59 57 54 61 61 68 72 81 81 80 85 65 81 89 80 77 82 73 79 70 62 62 56 50 40 36 35 34 31 32 31 32 37 44 48 74
85 84 75 55 56 57 52 68 75 73 73 79 92 94 93 100 100 92 96 84 92 95 86 84 93 83 72 72 67 55 45 41 39 41 39 36 38 38 37 40 56 73 100
58 69 87 78 73 79 82 90 89 87 93 100 100 100 100 100 98 94 99 100 90 100 100 99 82 75 72 70 60 50 48 43 49 44 44 54 50 45 48 50 66 92 100
86 82 96 100 100 100 100 98 100 97 100 98 100 100 100 100 96 100 100 100 94 94 92 79 70 71 79 71 57 52 43 48 47 46 68 73 63 60 66 74 87 99 100
93 100 100 100 100 100 100 100 99 100 100 100 100 100 100 92 94 95 100 99 90 82 86 79 84 88 76 73 63 43 42 48 66 76 90 89 85 90 93 92 99 100 100
100 100 100 100 100 100 99 95 100 100 99 98 100 100 100 100 94 100 100 100 95 86 85 77 79 78 79 72 50 42 50 84 93 88 89 86 89 94 100 100 100 100 100
100 100 99 100 100 100 98 100 98 98 100 100 99 90 97 100 100 90 98 87 89 80 85 84 88 91 77 54 41 62 78 96 91 88 100 100 100 100 100 100 100 100 100
100 100 100 100 100 100 100 100 100 97 95 98 100 100 100 93 99 95 89 99 84 89 70 89 90 80 51 36 52 75 88 100 100 100 100 100 100 100 100 100 100 100 100
100 100 99 98 100 100 90 97 90 99 100 100 100 100 100 100 100 98 100 96 79 74 86 92 80 48 24 43 70 86 99 100 100 100 100 100 100 100 100 100 100 100 100
100 100 100 100 100 100 100 100 100 100 100 100 100 100 100 100 99 100 65 71 78 89 74 67 41 20 32 58 79 98 100 100 100 100 100 100 100 100 100 100 100 100 100
100 100 100 100 100 100 100 100 100 100 100 100 100 100 100 100 93 72 72 80 87 78 64 39 16 24 46 67 96 99 100 100 100 100 100 100 100 100 100 100 100 100 100
100 100 100 100 100 100 100 100 100 100 100 100 100 100 94 78 80 82 91 99 82 41 45 19 18 34 56 87 100 97 98 100 100 100 100 100 100 100 100 100 100 100 100
100 100 100 100 100 100 100 100 100 100 100 100 89 86 86 90 96 100 91 80 24 33 18 19 29 45 75 97 100 99 99 100 100 100 100 100 100 98 96 100 98 98 100
100 100 100 100 100 100 100 100 100 100 99 95 99 97 91 99 100 100 76 22 22 17 23 31 44 70 88 98 98 95 98 98 100 99 100 100 100 100 100 100 99 95 93
100 100 100 100 100 98 99 99 100 99 84 93 78 85 99 92 94 50 19 19 15 25 40 42 61 77 86 94 95 98 100 100 100 100 100 100 100 100 100 100 100 98 88
96 100 100 99 94 94 81 65 82 85 75 87 87 80 88 76 25 18 16 14 22 40 42 46 60 78 89 92 95 100 100 100 100 100 100 100 100 100 98 96 95 94 93
100 100 100 100 100 99 97 76 87 95 66 60 59 55 44 20 18 16 14 18 32 38 48 50 71 94 99 91 99 100 100 100 100 100 100 97 99 98 96 95 93 92 91
Wind_Speed
22 22 21 20 23 24 24 27 27 27 30 33 34 34 36 37 36 38 37 37 40 41 39 39 45 45 43 47 52 56 62 66 73 78 82 85 85 81 79 77 71 69 68
26 27 27 27 27 29 31 34 35 35 36 37 39 38 41 42 44 45 45 47 49 50 49 53 53 52 50 50 52 53 53 60 68 71 76 84 84 89 90 86 83 75 74
29 29 30 32 34 36 36 38 40 42 43 44 47 50 51 50 50 52 54 52 54 56 57 60 62 61 61 61 62 60 55 54 61 68 75 73 80 88 90 95 91 88 85
31 31 33 35 37 39 42 43 46 48 48 49 51 54 56 57 58 59 61 61 61 62 64 68 67 68 69 69 68 67 68 63 59 60 68 70 79 79 86 93 95 95 89
34 37 39 41 43 44 45 46 49 51 54 55 56 56 58 61 62 65 67 66 67 69 72 73 74 74 75 76 77 78 75 73 70 64 65 66 70 83 86 88 92 94 92
39 43 45 48 51 52 52 53 53 56 60 62 62 60 62 63 65 65 67 69 73 77 78 77 78 80 82 83 85 84 82 83 79 80 74 71 68 74 82 89 90 94 98
49 53 56 57 58 57 57 55 57 63 65 62 63 65 67 70 71 71 72 77 81 81 83 83 86 87 88 91 89 89 90 88 85 84 80 74 70 74 80 89 95 92 93
57 58 60 61 61 61 60 61 64 68 67 63 64 67 69 72 76 78 79 83 86 89 91 93 94 95 96 95 97 98 92 93 91 88 82 76 71 72 80 82 92 96 97
60 61 64 65 64 64 66 68 69 67 67 67 69 70 71 75 78 80 86 90 93 96 98 99 101 103 103 103 104 101 99 99 94 89 82 74 70 73 77 81 94 99 102
63 64 64 65 65 67 69 70 71 72 74 74 75 77 78 80 82 86 90 96 99 101 104 105 107 109 110 108 109 110 105 101 94 87 78 73 71 74 77 85 87 99 102
67 68 70 69 68 69 72 73 75 77 78 80 80 81 83 84 90 94 97 98 102 106 108 110 112 114 116 116 116 114 106 100 89 80 72 69 70 73 79 83 89 97 100
69 71 72 73 75 77 76 75 79 82 85 86 84 84 86 90 95 100 102 106 105 105 113 113 116 120 124 118 114 109 101 91 79 69 65 65 68 72 78 82 88 97 102
74 77 78 79 80 79 81 84 85 87 88 89 90 90 93 98 101 105 108 106 109 112 114 118 122 124 121 114 107 100 91 78 69 61 59 62 66 71 77 82 88 97 103
77 79 81 82 83 85 85 87 90 90 89 90 93 96 99 102 107 108 109 112 115 118 118 121 126 120 113 106 99 90 77 66 58 56 56 59 63 68 73 80 85 93 99
81 83 84 85 87 88 90 92 91 91 94 96 99 100 103 106 110 111 112 115 118 119 122 125 121 112 104 98 89 75 64 54 52 52 53 56 60 65 70 77 83 88 91
90 90 91 89 90 93 96 95 95 97 100 101 101 106 109 110 110 117 117 118 122 126 129 117 109 104 93 87 74 64 52 49 49 47 46 48 54 59 64 70 77 84 92
93 93 91 94 97 99 100 100 101 102 105 104 108 113 114 118 117 120 122 121 127 127 116 108 102 90 82 73 65 55 49 45 45 45 43 47 50 55 61 67 73 80 86
99 98 100 103 103 103 105 105 108 109 109 111 115 118 122 121 122 125 127 129 129 117 109 101 87 79 70 64 54 48 42 41 43 44 45 48 52 55 58 64 69 75 81
104 106 107 107 108 108 108 111 111 112 116 120 121 123 122 127 129 128 130 127 117 110 103 87 76 66 59 50 46 42 38 38 40 44 45 47 51 55 56 61 65 73 77
108 110 110 110 111 113 115 116 120 123 124 125 126 128 130 130 134 131 128 118 108 101 88 75 62 57 48 44 41 38 37 37 39 41 44 47 49 50 54 58 62 66 75
112 113 114 117 118 120 123 126 128 129 132 133 131 132 137 136 132 129 124 112 97 88 78 63 56 50 43 40 36 37 37 35 36 39 41 45 47 48 51 55 59 63 69
118 120 121 122 124 126 131 133 133 134 135 136 135 136 133 130 127 123 111 98 85 76 63 55 46 46 40 36 38 39 36 35 36 38 41 43 46 47 48 50 55 58 62
126 126 129 133 135 134 136 140 141 135 138 137 133 129 126 125 120 110 94 85 76 63 54 44 42 41 38 36 39 37 37 36 37 39 39 40 43 45 47 49 51 54 58
136 138 139 138 138 144 141 142 140 139 134 134 134 126 123 112 103 94 82 72 61 52 39 38 37 39 39 39 39 37 38 38 38 38 39 40 42 43 45 48 50 52 54
148 144 144 144 144 145 141 136 138 134 135 129 124 114 101 95 89 78 67 58 48 38 36 35 36 39 40 41 38 37 37 37 38 39 40 40 41 42 44 45 47 48 50
148 144 144 144 143 144 141 139 139 135 128 115 100 91 86 81 72 61 55 47 39 35 33 33 35 37 40 39 38 37 37 37 38 38 39 39 40 41 42 42 43 45 46
Wind_Direction
328 324 317 320 330 330 327 325 326 322 321 319 318 317 317 317 319 321 319 319 315 312 312 310 302 302 299 285 280 280 273 270 262 256 252 252 250 249 250 250 251 253 252
321 320 315 316 315 317 317 318 319 320 317 315 313 313 313 313 313 314 313 312 313 315 314 313 310 309 306 302 298 281 284 276 271 263 258 254 252 251 249 249 250 245 247
316 316 314 310 310 310 309 311 311 310 309 306 305 309 309 308 307 307 306 306 306 305 306 309 307 306 302 300 300 297 292 283 270 266 261 260 257 252 252 249 249 250 247
305 308 310 310 309 307 306 308 307 308 305 304 304 304 303 303 305 303 303 304 303 303 303 303 301 300 300 299 298 297 297 293 286 275 265 263 258 255 253 251 250 249 249
303 304 304 303 303 302 302 301 302 303 306 304 301 299 302 302 302 300 302 303 302 302 300 299 300 300 299 300 299 299 296 294 292 287 279 269 264 255 250 252 250 247 246
303 307 306 308 308 304 302 298 300 302 305 302 301 297 301 302 302 301 301 299 301 301 302 302 302 301 301 300 299 297 295 294 290 290 286 277 267 257 247 248 250 249 246
298 300 304 303 304 305 300 302 299 305 306 302 300 299 299 299 299 301 301 301 302 302 303 304 303 303 302 302 300 297 295 292 289 289 285 280 267 257 250 243 244 246 247
296 297 299 301 302 303 301 299 298 306 305 303 300 300 299 298 300 301 300 300 302 303 304 304 304 304 305 302 302 300 295 291 288 287 285 277 267 253 250 243 240 243 243
297 298 300 302 303 301 298 296 297 301 301 300 300 298 297 298 300 301 301 302 304 304 304 303 304 304 304 303 303 299 296 292 289 286 283 273 262 250 246 243 235 237 240
300 300 299 298 298 297 297 299 298 298 300 300 300 299 297 299 299 300 303 303 304 306 305 304 304 304 304 304 303 301 296 293 290 286 278 267 258 249 243 241 235 235 236
299 298 296 295 293 295 298 296 295 295 298 299 296 298 298 298 299 300 302 304 304 304 304 304 303 304 305 303 302 300 296 292 288 281 271 261 252 245 241 236 234 232 231
293 294 294 295 294 294 293 294 296 297 298 297 296 296 297 297 299 302 302 303 305 304 304 304 305 305 305 301 299 296 293 291 285 275 265 255 247 242 237 233 231 231 230
292 295 296 294 294 294 295 296 296 297 297 300 299 298 298 298 300 301 302 302 304 304 305 306 305 305 304 300 298 296 294 288 280 268 257 250 245 239 233 231 228 229 227
293 295 296 296 296 295 293 295 297 298 297 296 298 297 297 299 300 301 302 303 304 305 305 306 305 303 302 301 299 296 291 285 273 263 255 248 242 238 233 230 228 227 229
294 294 294 294 293 293 294 296 297 297 297 296 295 296 297 299 301 301 301 303 303 305 307 306 303 302 301 299 297 292 287 277 267 260 253 244 238 235 232 228 227 226 229
293 294 293 293 292 293 295 295 295 296 295 295 296 298 299 299 300 301 303 304 306 306 305 303 304 304 299 296 292 288 282 272 263 254 248 245 240 237 236 235 233 229 229
294 294 294 293 292 292 293 294 295 295 295 295 296 299 299 300 300 304 305 305 306 305 304 305 304 300 296 291 288 284 277 262 253 247 241 239 236 235 234 234 232 232 232
292 293 293 293 293 292 294 294 295 296 296 297 298 298 301 302 302 303 305 305 305 306 305 305 300 295 290 287 284 279 266 254 248 244 239 234 235 234 234 235 233 231 233
292 293 293 293 293 293 294 295 295 294 295 298 299 300 299 302 303 304 304 306 306 306 305 301 296 289 287 282 279 270 257 249 245 244 243 237 236 237 235 234 233 233 234
291 292 292 292 292 292 293 293 295 296 296 298 299 301 301 302 304 303 305 306 304 304 302 298 289 285 281 277 271 261 256 248 244 242 242 242 239 237 237 236 235 235 235
290 290 291 291 291 291 293 294 295 297 297 298 300 300 301 303 303 305 306 303 301 301 298 290 284 277 275 269 259 253 248 245 243 241 240 240 242 241 239 239 238 236 237
289 289 290 290 291 291 293 295 295 296 297 297 298 299 302 302 304 304 301 299 300 298 290 283 274 271 266 255 247 247 245 240 240 240 240 241 243 243 243 241 241 240 240
290 289 290 291 292 293 292 293 295 295 297 298 298 299 301 302 302 300 298 298 298 292 284 271 268 262 255 246 244 244 241 239 239 241 242 243 244 244 245 246 245 245 244
290 291 291 291 290 291 292 293 294 295 297 296 297 299 298 298 299 297 296 296 293 286 271 266 257 250 246 243 242 240 238 237 238 240 242 244 245 245 245 246 247 247 248
292 290 290 293 293 292 292 294 294 294 295 297 296 296 297 296 295 294 294 292 286 272 266 259 249 243 240 244 242 241 240 238 237 238 241 243 245 245 245 247 248 249 251
290 290 290 290 291 291 291 292 292 293 293 293 293 293 294 293 291 291 291 285 275 268 260 254 246 241 239 241 239 242 241 240 238 239 240 242 243 246 248 249 250 252 254